Wind_Speed
27 27 27 26 26 25 24 25 25 26 27 27 28 29 29 30 32 33 35 36 36 36 37 38 39 39 39 39 40 42 44 46 46 45 44 43 42 43 43 43 43 43 42 41 39 37 35 34 33 33 33 33 34 35 36 37 38 38 39 39 40 41 42 44 46 48 47 46 48 50 48 48 48 46 46 47 46 47 47 47 48 49 50 51 51
28 28 27 27 26 26 25 26 27 27 28 29 29 29 30 31 34 36 37 37 37 37 38 39 39 39 39 40 41 44 46 47 46 44 42 42 42 43 43 42 42 41 40 38 36 34 33 32 32 32 33 34 35 36 37 37 38 38 39 39 40 41 42 43 45 47 48 45 45 48 46 45 47 47 47 48 49 50 50 49 50 50 51 53 53
29 29 29 28 27 27 27 27 28 28 29 30 30 30 31 33 36 37 37 37 38 38 39 39 39 39 40 41 43 46 47 47 45 42 41 41 42 42 41 41 40 38 37 35 34 33 32 32 32 32 33 34 35 36 37 37 38 38 39 39 40 40 41 42 44 45 46 45 45 47 48 46 48 50 50 51 52 53 53 53 53 53 53 53 54
30 30 30 29 28 28 28 28 29 29 30 30 30 31 33 35 37 38 38 38 39 39 39 39 39 39 40 43 46 48 48 46 43 40 40 41 41 41 40 39 37 36 34 33 32 31 31 31 32 32 33 34 35 36 37 37 38 38 38 38 38 39 40 41 43 44 46 46 45 48 50 50 51 52 53 54 54 54 55 55 55 54 53 53 54
31 31 30 30 30 29 30 29 30 31 31 31 31 32 35 36 38 38 38 39 39 39 39 39 40 41 42 45 47 48 47 44 41 39 39 40 40 39 38 36 35 34 33 32 31 31 30 31 31 32 33 34 35 36 36 36 36 36 36 36 36 37 39 40 42 43 45 46 47 48 51 52 53 53 54 54 54 54 54 53 53 53 52 53 54
32 32 32 32 32 31 31 31 32 32 32 32 33 34 36 37 38 39 39 39 39 40 40 40 41 43 45 47 47 47 45 42 39 38 39 39 38 37 35 34 33 32 31 30 30 29 29 29 30 31 32 33 33 33 33 33 33 33 33 34 35 36 37 39 41 43 44 47 48 50 52 54 54 54 53 52 53 54 54 53 52 52 53 54 54
34 34 34 34 33 33 32 33 34 34 34 34 35 36 36 37 39 39 39 39 40 40 40 41 43 45 47 47 46 45 43 40 38 38 39 38 37 35 33 32 31 31 30 29 27 27 27 28 28 29 30 30 30 30 30 30 31 31 32 33 34 35 37 39 41 43 45 48 50 52 54 55 55 54 52 51 51 52 54 56 55 53 54 55 54
36 36 36 36 35 34 34 35 35 35 36 36 36 36 37 38 39 39 39 40 41 41 42 43 45 46 46 44 42 42 41 38 38 38 38 36 34 32 31 31 31 30 28 26 25 25 26 26 27 28 28 28 29 29 29 30 30 31 32 33 34 36 37 40 42 44 47 49 51 54 55 55 54 52 52 52 53 53 54 57 58 58 57 56 54
38 38 39 38 36 36 36 36 37 37 37 37 37 37 37 39 40 40 40 41 41 42 44 45 46 46 44 41 40 40 39 37 37 37 36 34 32 31 30 30 30 29 27 25 24 24 25 26 27 27 28 28 28 29 29 30 31 31 32 33 34 36 38 41 43 45 48 50 52 55 55 55 53 52 52 54 56 58 58 59 60 59 59 57 53
39 40 41 40 39 38 38 38 39 39 39 38 38 38 38 40 41 41 41 42 43 44 45 47 46 44 42 40 39 38 37 38 38 36 34 32 31 30 30 30 30 28 25 24 24 25 26 27 27 28 29 29 29 30 30 31 32 32 33 34 36 38 39 41 44 46 49 52 54 55 56 55 54 53 55 56 58 59 60 59 59 58 56 55 51
40 42 42 41 40 39 39 40 40 40 40 39 39 39 40 41 41 41 42 43 44 45 46 46 45 42 41 39 38 37 37 38 37 35 33 32 31 30 30 30 30 28 26 25 25 26 27 28 29 29 30 30 30 31 31 32 33 33 34 35 37 38 40 42 45 47 50 52 54 55 56 56 55 55 57 59 60 60 59 58 57 55 53 53 50
40 42 42 41 40 40 40 41 41 41 41 40 40 40 41 42 42 42 43 44 44 45 46 45 43 41 40 38 37 37 37 37 36 34 33 32 31 30 30 31 31 29 27 26 26 27 28 29 30 31 32 32 32 32 32 33 34 34 35 36 37 39 41 43 45 48 50 52 54 55 55 56 56 56 58 60 60 60 58 56 54 53 52 52 51
39 40 40 39 40 40 41 42 42 42 42 41 41 42 42 43 43 43 43 44 45 45 45 44 42 40 38 37 37 37 37 36 35 33 33 32 31 31 31 31 31 30 29 29 28 29 30 31 32 33 33 33 33 33 34 34 35 35 36 37 38 39 41 43 46 49 51 53 54 54 55 55 56 57 58 59 58 57 56 54 53 52 51 52 52
39 38 38 37 39 40 41 42 42 42 43 42 43 44 43 43 43 43 44 44 45 45 44 43 41 39 38 37 37 37 36 35 34 34 34 33 32 32 31 32 32 32 31 31 31 31 32 33 34 34 35 35 35 35 35 36 36 36 37 37 38 40 41 43 46 49 51 53 55 55 55 55 56 58 58 57 55 55 54 54 52 51 51 51 51
38 36 36 37 39 40 41 42 42 43 44 44 44 44 43 43 42 43 43 44 44 44 43 41 40 38 37 37 36 36 35 35 35 35 35 35 34 33 33 33 34 34 33 33 33 34 35 35 36 36 37 37 36 37 37 37 37 37 37 38 39 41 42 44 47 50 51 53 55 56 56 55 56 57 57 55 53 52 52 52 51 50 50 50 49
36 35 35 37 38 39 40 42 43 44 44 43 43 41 41 41 41 42 43 43 43 42 41 39 38 37 36 36 36 35 35 35 35 36 36 36 35 35 34 35 35 35 35 35 36 37 38 38 39 39 39 38 38 38 38 39 39 38 38 39 40 42 43 46 48 50 52 53 53 54 54 54 55 55 54 52 51 50 50 49 48 48 49 49 47
35 35 36 37 38 39 40 41 42 42 41 41 40 40 40 41 41 42 43 42 41 40 39 37 37 36 36 37 36 35 35 35 36 37 37 37 37 36 36 36 37 37 37 38 38 39 40 41 41 41 41 40 40 39 40 40 40 40 40 40 42 43 44 46 48 50 51 52 52 52 53 53 54 54 51 49 48 48 49 48 47 47 48 48 47
35 36 36 37 38 39 39 39 40 40 40 41 41 41 40 41 41 41 40 39 39 38 37 37 36 36 36 36 36 36 36 36 37 38 38 38 38 38 38 38 38 39 39 40 40 41 42 42 43 43 42 42 41 41 41 41 42 41 41 42 43 44 46 47 49 49 50 51 51 51 52 52 53 52 50 48 46 46 46 46 46 46 47 47 47
36 37 38 39 39 39 40 41 42 43 43 43 42 41 40 39 40 40 39 39 39 38 37 37 36 36 36 36 36 36 37 38 38 39 39 39 39 39 40 40 40 40 41 42 42 42 43 43 44 44 43 43 42 42 42 43 43 43 44 44 44 45 47 48 49 50 50 50 51 51 51 51 51 51 50 48 46 44 44 44 44 44 45 45 46
38 39 40 40 41 42 43 43 44 43 42 41 40 39 40 40 40 40 39 39 39 38 37 36 36 36 36 37 37 37 37 39 39 39 40 40 40 41 41 41 41 41 42 42 42 43 43 43 43 43 43 43 43 43 44 44 45 45 45 45 46 46 48 49 49 50 50 50 50 51 51 51 51 51 49 47 45 44 42 42 41 42 42 42 42
39 40 40 41 41 41 41 40 40 39 39 39 40 41 41 41 40 39 38 38 38 37 36 36 36 36 36 37 38 38 38 39 40 40 41 41 41 42 41 41 41 41 42 42 41 41 41 41 42 42 43 43 44 44 44 45 45 46 46 46 47 47 48 48 49 49 49 49 50 50 50 50 50 50 49 47 44 43 42 40 40 40 40 41 41
37 37 37 36 36 36 37 37 38 38 39 40 40 40 40 38 38 37 37 37 36 36 35 35 36 36 37 38 38 38 38 39 40 41 41 41 42 42 42 41 41 41 41 41 40 39 39 40 40 41 42 43 43 44 44 44 45 46 46 46 46 47 47 48 48 48 48 48 49 49 50 50 50 49 48 46 44 42 41 39 39 39 39 39 40
33 33 33 33 34 35 36 37 38 38 39 38 38 37 36 36 36 35 35 35 35 35 35 35 36 37 38 38 38 38 39 39 40 41 41 41 41 42 42 41 41 41 42 41 41 40 40 41 41 41 42 42 43 43 44 44 45 45 45 46 46 46 46 47 47 47 47 47 48 48 49 49 49 49 48 46 44 42 41 39 38 38 37 37 38
31 32 33 34 35 35 36 36 37 37 36 36 35 35 34 33 33 33 33 34 34 35 35 36 37 38 38 39 39 39 39 39 39 40 40 40 41 42 42 42 42 43 43 43 42 42 43 43 44 44 43 43 43 43 43 43 44 45 45 45 45 45 46 46 46 46 46 46 47 48 48 49 49 49 48 46 44 43 41 39 38 37 37 37 36
32 32 33 34 34 35 35 35 35 35 34 34 33 33 32 32 32 33 33 34 35 35 36 37 38 39 39 39 39 39 39 39 39 39 40 41 42 43 44 44 45 46 46 45 44 44 44 45 46 46 46 45 44 43 42 42 44 45 45 45 45 45 46 46 46 45 45 45 46 47 47 48 48 48 47 46 44 43 42 40 38 37 37 37 35
32 32 33 33 34 34 34 34 34 33 33 32 32 32 32 33 33 34 35 35 36 37 38 38 39 39 40 40 40 39 39 39 39 39 40 42 43 45 46 46 47 49 50 49 48 47 47 47 48 49 49 48 45 43 43 43 44 45 45 45 45 45 46 46 45 45 44 45 45 46 46 47 47 47 47 45 44 42 42 41 39 37 37 37 35
32 32 33 33 33 34 34 33 33 33 33 33 33 33 34 34 35 36 36 37 38 38 39 40 40 41 41 41 41 40 41 41 41 41 42 44 46 47 49 50 50 52 53 52 51 51 50 51 51 51 51 49 46 44 44 45 45 45 45 45 45 45 46 46 45 44 44 44 45 45 46 46 47 47 46 44 42 41 41 42 41 39 38 38 36
32 32 32 33 33 33 33 33 33 33 33 33 34 34 35 36 37 38 38 39 40 41 41 42 42 42 43 43 43 43 44 44 43 42 44 46 48 50 52 53 53 54 55 55 54 54 54 54 54 53 53 51 48 46 45 45 45 45 45 45 45 45 46 46 45 44 44 44 44 45 45 46 46 46 46 44 42 41 40 41 41 40 39 39 38
32 32 32 33 33 33 34 33 34 34 34 35 35 36 37 38 39 40 40 41 42 43 43 44 44 44 45 45 46 46 46 45 44 44 46 49 52 53 55 55 56 57 57 57 57 57 56 55 55 54 53 51 49 46 44 44 44 44 44 44 44 45 45 46 44 44 44 44 44 44 45 45 46 46 46 44 42 40 40 40 40 40 39 39 38
31 32 32 32 33 33 34 34 34 35 35 36 37 38 39 40 41 41 42 43 44 44 45 46 46 47 48 48 49 49 49 48 48 48 50 52 54 56 57 58 59 59 59 59 60 59 58 57 56 55 53 51 48 44 43 44 44 44 44 44 44 44 45 45 44 44 43 43 44 44 44 45 45 46 46 45 42 40 39 39 39 39 39 39 38
31 32 32 32 32 33 33 34 35 35 36 37 38 39 40 41 42 43 44 44 45 46 47 48 49 50 51 51 52 52 52 52 52 54 55 56 57 58 60 61 61 61 60 61 61 60 60 59 57 56 53 50 47 44 43 45 45 45 44 44 44 44 44 44 44 43 43 43 43 43 43 44 45 46 46 45 43 40 38 38 38 38 38 38 38
30 31 32 32 33 34 35 36 37 37 38 39 40 41 42 43 43 44 45 46 47 47 48 49 50 51 52 53 53 53 54 54 55 56 56 57 58 60 61 61 61 61 61 62 62 62 61 60 58 56 53 50 47 45 45 46 46 45 45 44 43 43 44 44 44 43 43 43 43 43 43 43 44 45 45 44 42 40 39 38 38 38 37 36 36
30 31 32 34 35 36 38 39 39 40 41 42 43 43 44 45 45 46 46 48 48 49 50 51 51 52 52 53 53 54 54 54 54 55 56 57 57 57 57 57 58 59 60 61 61 60 60 60 59 57 53 50 47 46 46 47 46 45 45 43 42 42 43 44 43 42 42 42 42 42 42 42 43 44 44 43 41 40 39 38 38 38 37 36 36
32 33 35 36 37 38 39 40 40 41 41 42 43 43 44 45 45 46 47 49 50 50 51 52 52 53 52 52 53 53 54 54 54 55 55 55 54 54 54 54 55 55 56 57 57 56 56 57 57 54 51 48 46 46 46 46 46 45 44 42 42 42 43 43 43 42 42 42 42 41 42 42 42 43 44 42 40 39 38 38 38 38 37 36 36
36 37 38 38 39 39 39 39 40 40 40 40 41 42 43 45 46 47 49 50 51 51 51 51 51 52 52 52 51 51 52 52 53 53 53 53 53 53 53 54 55 54 53 52 51 51 51 52 51 50 48 47 46 46 46 46 45 44 43 42 41 42 43 43 42 42 42 41 41 41 41 41 42 43 43 41 39 38 37 37 37 37 36 36 36
40 40 40 40 40 40 40 40 40 40 41 42 43 44 46 47 48 49 50 50 50 50 50 50 50 50 50 50 50 49 49 49 50 50 50 50 51 52 53 54 54 54 52 51 49 48 47 47 47 47 47 47 47 47 46 46 45 44 43 42 42 42 43 43 42 42 41 41 41 40 40 41 41 42 42 40 38 37 37 36 36 35 35 35 35
42 42 42 41 41 41 41 41 42 43 44 45 46 47 47 48 48 49 49 49 49 49 49 50 50 50 50 50 49 49 50 50 50 50 50 50 51 52 53 53 52 52 51 49 47 46 45 45 46 47 48 48 48 47 46 46 45 44 43 42 42 43 43 43 42 41 41 41 41 40 40 40 40 40 40 39 36 35 36 36 36 35 34 34 34
42 42 42 41 42 42 43 44 44 45 46 46 46 47 47 47 47 47 47 48 48 48 48 49 49 49 50 50 50 50 50 49 49 49 49 49 50 51 51 50 50 49 48 47 46 45 46 46 48 49 49 49 48 47 46 45 45 44 44 43 43 43 43 42 42 41 41 40 41 40 40 39 39 39 39 37 35 34 34 34 35 35 34 33 32
42 42 42 42 43 44 45 45 45 45 46 46 46 46 46 45 45 45 46 46 46 46 46 46 46 47 47 47 47 47 47 47 47 47 48 49 49 49 49 48 48 48 47 47 47 48 48 49 49 49 49 49 48 47 46 46 46 45 45 44 43 43 43 42 42 41 41 41 41 40 39 39 39 38 37 35 34 34 33 33 34 34 34 32 31
42 42 43 44 45 45 45 45 45 45 45 45 44 45 44 44 44 44 44 45 45 45 44 44 43 43 43 42 43 44 45 45 46 46 47 47 48 48 48 48 48 48 49 49 50 51 51 52 52 52 52 51 51 50 49 48 48 47 45 44 43 42 42 42 42 41 40 41 41 40 39 38 38 37 35 33 33 33 33 33 33 33 33 32 31
43 44 44 44 44 44 44 44 44 43 43 43 43 44 43 43 43 43 43 43 43 43 42 41 41 41 41 41 42 43 44 44 44 45 45 46 47 48 49 49 50 51 52 53 54 54 55 55 55 55 55 55 54 53 52 51 49 48 46 45 43 42 42 42 41 40 40 41 41 40 38 38 37 36 33 31 31 32 32 32 32 32 31 31 30
43 43 44 43 43 43 43 43 42 42 42 42 42 42 42 42 42 41 41 41 41 41 40 40 40 40 41 41 42 42 43 44 44 45 46 47 48 49 50 51 52 53 54 55 55 56 56 56 56 56 56 55 54 53 52 50 49 48 47 45 44 42 42 42 41 40 40 41 40 39 37 37 36 34 32 30 30 31 32 32 31 31 30 29 29
42 42 43 43 43 43 43 42 42 41 41 41 41 40 40 40 40 40 40 39 39 39 39 39 39 40 40 41 42 43 44 45 46 47 48 49 50 51 52 53 54 54 55 56 56 57 57 57 56 56 55 54 53 52 51 49 48 47 46 44 43 42 42 41 40 39 40 40 39 37 36 36 34 31 30 30 30 31 31 31 30 30 29 28 28
41 42 42 42 42 42 42 42 41 41 40 40 40 39 39 39 38 38 38 38 38 38 38 39 40 41 41 42 43 44 45 46 47 48 49 50 51 52 53 55 56 57 58 58 58 58 58 58 57 56 55 54 53 52 50 48 47 46 45 43 42 41 40 39 38 38 39 39 38 36 35 34 31 29 29 29 30 30 30 30 30 29 28 28 27
41 41 41 41 41 41 40 40 40 39 39 39 38 38 38 37 37 37 37 38 39 39 40 41 42 43 44 44 45 46 46 47 48 49 50 51 52 53 54 55 56 57 58 59 59 59 59 58 57 56 55 53 52 51 49 48 46 44 43 41 41 40 38 37 37 38 38 37 36 35 33 31 29 28 28 28 29 30 30 29 29 28 27 26 26
40 40 40 39 39 39 38 38 37 37 37 37 37 37 37 38 38 39 39 40 41 41 42 43 44 44 45 45 45 46 47 47 48 49 49 50 51 52 53 54 55 56 57 57 57 57 57 56 54 52 51 50 49 49 47 46 44 42 41 40 39 38 36 35 36 37 36 35 34 33 31 28 27 27 27 28 28 29 29 28 27 26 26 25 25
39 39 38 38 37 37 37 36 36 36 37 37 38 38 39 40 40 41 41 42 42 43 43 44 44 45 45 45 46 46 47 47 47 48 48 49 50 51 52 53 53 53 53 53 52 51 50 49 47 46 44 43 43 43 43 43 41 39 38 37 37 36 34 34 35 35 34 33 32 30 28 26 25 26 26 27 27 28 27 26 26 25 25 24 24
38 38 37 37 37 36 36 37 37 37 38 39 39 40 41 41 42 42 43 43 43 44 44 44 44 45 45 45 45 45 45 45 45 45 46 46 48 48 49 49 48 47 46 45 44 43 41 40 38 37 36 35 36 37 37 37 36 35 35 34 34 33 32 32 33 32 31 31 29 27 25 24 24 24 25 25 26 26 25 25 24 24 24 23 23
38 37 37 37 37 37 37 37 38 39 39 40 41 42 42 43 44 44 44 44 44 44 44 44 44 44 43 43 43 42 42 42 42 41 42 43 44 44 43 42 41 40 39 37 36 34 32 30 29 28 27 27 28 29 30 30 30 31 31 31 30 30 30 30 29 29 28 27 26 24 23 23 23 23 23 24 24 24 24 24 23 23 23 22 22
37 37 37 37 37 37 38 39 40 40 41 42 43 43 44 44 45 45 45 45 44 44 43 42 42 41 41 40 39 39 38 38 37 37 38 39 38 38 36 35 34 33 32 30 28 27 25 23 22 21 20 21 21 22 23 24 25 26 27 27 27 27 26 26 25 25 25 24 23 22 22 22 22 22 22 23 23 23 23 23 23 22 21 21 21
37 37 37 37 38 39 39 40 41 42 43 43 44 44 45 45 44 44 44 43 42 41 41 40 39 38 37 36 36 35 34 33 33 33 34 33 33 31 30 28 28 27 25 24 23 21 19 18 16 15 15 15 15 16 18 20 21 22 23 23 23 22 22 22 22 22 22 22 21 21 21 20 20 21 21 22 22 23 23 22 22 21 20 20 20
Wind_Direction
240 242 243 245 247 250 255 260 265 269 272 274 276 280 283 286 289 290 291 292 293 295 297 297 298 299 300 301 303 305 307 310 312 314 315 315 316 318 318 318 318 317 316 315 314 314 314 314 314 313 312 311 311 311 311 311 312 312 313 314 315 315 315 315 315 313 312 313 312 312 313 313 311 311 309 309 309 309 310 310 310 310 309 308 307
243 244 245 246 248 252 258 262 267 271 272 275 278 282 285 288 290 291 291 292 294 295 296 297 297 298 299 301 304 306 308 310 312 314 315 316 317 318 318 317 316 315 314 314 314 313 314 313 313 312 311 311 310 310 310 311 311 312 313 314 315 316 316 316 316 315 315 315 315 313 314 313 311 310 310 309 309 310 309 309 309 309 309 309 308
244 244 245 247 250 255 261 265 269 271 272 275 279 283 287 289 290 290 290 292 294 295 296 296 297 298 300 303 305 307 309 311 313 314 315 316 317 317 317 316 315 314 313 313 313 313 312 312 311 311 310 310 310 310 310 310 311 313 313 314 315 316 318 317 317 317 317 319 318 316 315 314 312 310 310 310 309 309 308 308 308 308 308 308 308
245 246 247 250 254 259 264 268 269 270 272 275 279 284 287 288 288 289 290 292 294 294 294 295 297 299 302 304 306 307 310 312 313 314 314 315 316 316 315 313 313 313 312 312 312 312 311 311 311 311 310 310 310 310 311 311 312 313 314 316 317 318 318 319 319 320 320 320 321 318 316 315 314 312 311 310 309 309 308 308 307 307 307 307 308
249 249 250 253 258 263 266 268 269 269 271 275 280 284 286 287 287 288 290 291 292 293 294 295 298 301 303 304 305 307 310 312 312 312 313 314 315 314 312 312 312 312 311 311 311 311 311 311 311 312 312 311 311 312 313 314 314 316 317 318 319 320 320 321 321 322 321 321 321 320 318 317 316 315 314 313 312 310 309 309 308 308 307 307 307
253 252 253 256 260 264 266 267 268 269 271 275 279 282 284 285 286 288 290 291 292 292 294 296 299 301 302 302 304 307 309 310 310 311 312 313 312 311 310 311 311 311 310 309 309 310 311 312 313 314 314 314 315 315 316 317 318 318 319 320 320 321 321 322 322 322 322 322 322 322 321 320 320 319 318 317 315 314 312 310 309 309 308 307 307
254 253 254 257 261 264 266 266 267 268 271 274 277 280 282 285 287 288 290 291 291 292 293 296 298 299 300 301 303 306 308 309 309 309 310 310 309 308 309 309 310 309 307 307 308 310 313 315 316 317 317 318 318 318 318 319 319 319 319 320 320 320 321 321 321 321 322 323 323 323 324 323 323 322 321 319 318 316 314 313 312 311 309 308 308
255 254 255 259 262 264 264 265 266 268 271 273 276 279 283 285 287 288 289 289 290 291 293 295 296 297 298 299 301 304 306 307 307 308 308 308 307 307 307 308 308 306 304 304 307 310 313 315 316 317 317 317 318 318 317 317 317 317 317 318 318 319 319 320 321 322 322 323 325 325 326 325 325 323 322 320 319 318 315 314 313 312 311 309 309
257 256 258 260 262 262 263 264 265 267 270 273 276 280 283 285 286 287 288 288 289 291 292 294 294 295 296 297 299 302 304 305 305 305 306 305 305 305 305 306 305 303 301 302 305 309 312 313 314 314 315 315 314 314 314 313 313 314 314 315 315 316 318 319 321 322 323 324 326 326 326 326 324 322 322 321 320 319 317 315 313 312 311 310 309
261 260 260 260 261 262 262 263 265 268 271 273 276 279 282 284 285 286 287 288 289 290 291 291 292 293 295 296 298 300 302 303 303 303 303 303 303 303 304 304 303 299 297 299 303 306 308 310 310 310 310 310 310 309 309 309 310 311 312 312 314 315 317 319 321 322 324 325 326 326 325 325 323 322 322 322 321 319 318 316 314 313 312 310 310
265 263 262 261 261 262 262 263 266 269 271 273 276 279 281 283 284 285 285 286 287 288 288 289 291 292 294 295 297 299 300 301 301 301 301 301 302 302 302 302 300 297 294 297 300 302 304 305 306 306 306 306 305 305 305 306 307 308 309 311 313 315 317 320 321 323 324 325 326 326 325 324 323 322 322 322 321 320 319 317 316 316 315 314 313
265 264 262 261 260 261 262 264 267 269 271 274 276 278 279 281 282 283 284 285 285 285 287 288 290 291 292 294 296 297 297 298 299 299 300 300 300 300 300 300 299 295 293 294 297 299 300 301 301 302 302 302 302 301 302 303 305 306 307 309 312 314 317 320 321 323 323 324 325 326 325 324 323 323 324 324 323 322 320 319 319 318 317 317 317
263 262 261 259 260 261 263 266 268 270 272 275 276 277 278 280 281 282 283 283 283 284 286 287 289 289 290 292 294 294 295 296 297 298 298 298 298 299 298 298 298 295 292 293 294 295 296 296 297 297 298 298 298 299 300 301 302 304 305 308 310 313 316 319 320 321 323 324 325 326 325 324 323 324 325 325 323 322 321 320 320 320 319 318 318
257 257 257 258 260 262 264 267 269 271 273 274 275 276 278 280 281 281 281 281 282 283 285 286 286 287 289 290 290 291 293 295 296 296 297 297 298 298 298 297 296 295 292 291 292 293 293 293 293 294 294 295 296 296 297 299 300 302 304 306 309 312 315 317 318 319 321 323 325 326 326 325 324 325 326 325 323 322 321 320 321 320 318 318 318
252 251 253 256 259 261 264 266 268 270 272 273 275 277 278 279 280 280 279 280 280 282 283 284 284 285 287 287 288 290 293 294 294 295 295 296 297 298 298 297 296 295 293 291 291 291 291 291 291 291 292 293 294 295 296 297 298 300 302 304 307 310 313 315 316 318 320 322 325 326 327 326 325 326 326 325 323 321 319 319 319 318 316 316 316
247 248 252 255 258 261 264 267 269 270 272 273 275 276 277 277 277 277 277 278 279 280 281 282 283 283 283 285 288 291 292 292 292 294 294 295 296 297 297 296 295 295 294 293 291 290 290 290 290 290 291 291 293 294 295 296 297 298 300 302 305 308 311 313 315 318 319 322 324 326 326 325 324 325 325 324 321 319 318 318 318 315 314 314 315
251 254 257 259 262 265 267 268 269 270 271 271 272 274 274 274 274 274 275 276 277 278 279 279 279 279 281 285 289 290 290 290 291 292 293 294 296 297 297 296 295 295 295 294 292 291 292 292 291 291 291 292 293 294 295 296 296 297 299 301 304 307 310 312 315 317 318 320 323 325 324 324 324 325 324 322 320 319 318 318 317 315 315 315 316
259 260 262 263 265 266 266 267 267 267 269 270 272 272 272 271 271 272 273 274 275 275 276 276 277 279 282 286 288 288 288 289 290 291 292 294 295 296 296 295 294 295 295 294 293 293 294 295 294 292 292 293 294 295 296 296 296 297 298 300 303 306 309 311 314 315 316 317 321 323 324 323 323 324 324 322 320 319 318 317 316 316 316 318 319
262 262 263 263 263 263 264 265 266 268 270 271 272 271 270 269 270 271 272 272 273 273 274 275 277 280 282 284 285 286 287 287 289 290 292 293 294 295 294 294 295 295 295 295 295 295 297 297 296 295 294 294 295 296 296 296 297 297 299 300 303 306 308 311 313 314 315 316 318 322 323 323 323 324 323 322 321 320 318 317 317 317 318 320 321
262 261 261 262 262 263 264 266 267 269 270 270 269 269 269 269 270 271 271 272 272 273 274 275 277 279 280 282 283 284 285 286 288 289 290 292 293 293 294 294 295 295 295 296 297 297 298 299 298 297 296 295 296 297 297 298 298 299 300 302 304 306 308 310 312 313 314 315 318 321 322 322 323 324 324 322 321 319 317 316 317 318 319 320 322
262 262 262 263 263 264 265 266 267 267 267 267 268 269 270 271 271 271 271 271 271 272 273 274 276 277 279 280 281 283 284 285 286 288 289 290 291 292 293 294 295 296 296 297 299 300 301 300 299 298 298 298 298 299 299 300 300 301 302 303 305 306 308 310 311 312 314 315 318 320 322 322 323 324 323 322 320 318 317 316 316 317 319 322 324
262 262 262 262 263 263 264 265 265 266 266 268 269 270 271 271 270 270 270 270 271 272 272 273 275 277 278 279 281 282 283 284 285 286 288 289 290 291 293 294 295 296 297 299 301 303 304 304 302 301 300 300 300 300 301 301 302 303 303 304 305 306 308 309 311 312 313 315 317 320 321 322 323 324 323 321 319 317 316 315 316 317 320 325 328
261 261 262 263 264 265 265 266 266 267 268 269 269 269 269 268 268 269 269 270 271 271 272 274 275 277 279 280 281 281 282 282 284 285 286 288 289 290 292 293 295 296 297 299 302 304 305 306 305 304 303 302 302 302 302 303 303 303 304 304 305 306 307 309 310 311 313 315 317 319 321 321 322 323 322 320 318 316 315 315 316 318 321 326 329
263 265 266 267 267 268 267 267 267 267 267 267 267 267 268 268 269 270 270 271 271 272 274 275 276 278 279 280 281 281 282 282 283 284 285 287 288 290 292 294 296 297 297 299 302 304 305 305 305 303 303 303 304 304 304 304 303 303 303 304 304 305 306 308 310 311 312 314 316 318 320 320 321 322 321 319 317 316 316 316 317 319 321 325 328
269 270 270 270 270 269 269 268 268 267 267 267 267 268 268 269 269 270 270 271 271 273 274 275 276 278 279 280 281 282 282 282 283 284 285 286 288 290 292 295 297 296 297 299 301 301 302 303 303 302 301 302 303 304 304 304 303 303 303 303 304 305 306 307 308 309 310 313 315 317 319 319 320 320 320 318 317 316 315 315 317 319 320 321 324
273 272 272 272 271 270 269 269 268 267 267 267 267 268 268 269 269 270 271 272 273 275 276 276 277 278 279 281 282 282 282 282 283 283 284 286 288 290 292 294 294 294 295 298 298 297 298 299 299 299 298 298 300 302 302 302 303 303 302 302 303 304 305 305 306 307 309 312 315 317 318 319 319 319 319 317 316 315 314 314 316 317 318 318 320
274 274 273 272 271 270 269 269 268 268 268 268 268 269 270 270 271 272 274 275 275 276 276 277 277 278 279 281 281 281 281 281 282 283 284 286 287 288 288 289 291 292 294 295 294 293 294 295 295 295 295 295 297 299 300 300 301 301 301 301 301 302 302 303 304 306 308 311 313 315 317 318 318 318 318 316 315 314 314 314 315 316 317 318 319
274 274 273 272 271 270 269 269 270 270 270 271 272 273 274 274 274 275 275 275 275 275 276 276 277 278 279 280 280 280 280 281 282 284 284 283 282 282 284 287 289 289 290 290 289 289 290 291 292 293 293 293 295 296 297 297 297 298 298 298 298 299 300 301 302 304 307 310 312 314 316 317 317 317 316 315 314 314 313 313 314 315 317 318 319
275 275 274 273 272 271 271 272 273 274 275 276 276 277 277 276 276 276 276 275 275 275 276 277 278 279 279 280 280 280 281 282 283 282 280 279 280 281 283 285 285 285 285 285 285 285 286 288 289 290 290 290 292 294 294 294 294 294 294 294 295 297 298 300 301 303 306 308 311 313 315 316 316 315 315 314 313 313 313 313 313 314 316 317 319
275 275 274 273 273 273 274 275 276 277 278 278 279 279 278 278 278 277 277 277 277 277 278 278 279 279 280 280 280 280 281 281 280 279 278 278 279 280 282 282 282 282 282 282 282 284 285 286 287 287 287 288 290 291 292 291 291 292 291 292 293 295 297 299 300 301 304 306 309 311 313 315 315 314 314 313 312 312 312 312 312 314 315 317 318
275 275 275 274 274 274 275 276 276 277 277 277 278 278 277 277 277 277 277 277 277 278 278 278 279 279 279 279 279 279 279 279 278 278 278 278 279 279 280 280 280 280 280 280 281 283 284 284 285 285 285 286 287 288 289 290 289 289 289 290 291 294 296 297 298 299 302 304 307 310 312 313 314 313 313 312 311 311 312 312 312 313 315 316 317
275 276 276 276 276 276 276 277 277 277 277 277 277 276 275 275 275 275 275 276 276 277 277 277 277 277 277 278 278 278 278 278 278 278 278 278 278 278 278 278 279 279 279 279 279 281 282 282 283 283 283 283 283 284 287 289 288 286 286 287 290 292 294 295 295 297 299 302 305 308 310 311 312 312 312 311 310 310 311 311 312 312 314 315 316
277 276 276 276 276 276 277 277 277 278 278 277 277 277 276 275 275 275 275 275 275 275 275 275 275 276 276 277 277 277 277 278 278 279 279 279 279 279 280 281 281 281 279 279 280 281 282 281 282 282 282 281 281 283 287 288 286 284 284 285 288 290 291 292 293 294 296 299 303 306 308 309 310 310 310 309 309 309 310 311 311 312 313 315 315
281 280 278 278 278 278 278 279 279 279 279 278 278 278 277 277 276 276 275 275 274 274 274 274 275 275 276 276 277 277 278 278 278 279 279 280 282 282 283 283 284 283 282 282 283 283 282 281 281 282 281 279 279 283 286 286 283 282 282 284 286 287 288 289 290 292 294 297 301 304 306 308 309 309 309 308 307 308 309 309 310 311 312 314 315
285 284 283 283 282 282 282 282 282 282 281 280 280 279 278 278 278 277 277 277 276 276 277 277 277 277 277 277 277 278 278 278 279 279 279 280 282 283 283 284 285 285 285 285 284 283 282 281 281 280 279 278 279 283 284 283 281 281 281 282 284 285 286 287 288 289 292 295 299 302 304 306 307 307 307 306 306 307 307 307 308 309 311 313 315
287 286 285 285 284 284 284 284 284 283 283 282 281 280 280 280 279 279 279 280 280 280 280 280 280 279 279 279 279 279 279 279 279 279 280 281 282 283 284 284 285 285 286 285 285 284 283 281 280 278 278 278 280 282 282 281 280 280 281 282 283 284 284 285 287 288 290 293 297 300 302 304 305 305 305 305 305 305 306 307 307 308 310 312 314
286 285 284 283 282 283 283 283 283 283 282 282 281 281 281 281 281 281 282 282 283 283 283 282 281 281 281 280 280 279 279 279 279 279 280 282 283 283 284 285 285 286 286 286 285 284 283 281 280 279 279 280 281 281 280 280 280 280 280 281 282 282 283 285 286 287 288 291 295 297 299 301 303 303 303 302 302 303 304 305 306 307 309 311 313
284 282 281 281 281 281 281 281 282 282 281 281 281 281 282 282 283 284 284 284 284 284 284 283 282 282 281 281 280 280 281 281 282 282 282 283 283 283 284 284 285 285 285 285 284 283 281 280 280 280 280 281 280 280 279 280 280 281 281 281 281 282 283 284 284 285 286 289 292 294 297 299 300 301 301 300 301 301 303 304 304 306 308 310 311
282 280 280 280 280 281 281 281 281 281 282 282 283 284 285 285 285 285 285 285 286 285 285 284 284 283 283 282 282 283 283 284 284 284 284 283 284 284 284 284 285 285 285 285 284 283 282 281 281 281 281 281 280 280 280 280 281 281 280 280 281 281 281 282 282 283 284 286 289 292 294 296 298 299 298 298 299 300 301 302 303 305 306 308 309
280 280 280 280 281 281 281 281 282 283 284 285 286 287 287 287 286 286 286 287 287 287 286 285 285 286 285 284 284 283 283 283 283 283 284 284 284 284 285 286 286 286 286 285 285 284 284 283 283 282 282 282 281 281 281 280 280 279 278 278 279 279 279 280 280 281 282 284 286 289 292 294 296 296 296 296 297 299 300 301 302 303 305 307 308
281 281 281 281 281 281 282 283 284 285 287 287 288 288 287 287 287 287 287 287 288 288 287 286 286 286 285 284 283 283 283 284 284 284 284 284 284 285 286 286 286 286 285 285 284 284 283 283 282 282 281 281 280 280 279 278 277 277 276 276 276 276 277 277 277 278 279 281 284 287 290 292 293 294 293 294 295 297 299 300 301 302 303 305 306
281 281 281 282 282 283 284 285 286 287 288 288 288 288 288 288 288 288 288 288 288 288 287 286 285 285 285 284 284 285 285 285 286 286 286 286 286 286 287 287 286 286 286 285 285 284 284 283 282 281 281 280 279 278 277 276 274 273 273 272 272 273 273 273 274 275 276 278 281 284 287 289 291 291 291 292 294 296 297 298 299 300 302 304 305
282 282 283 284 285 285 286 287 288 288 289 289 289 289 288 288 289 288 288 288 287 287 286 286 286 286 286 287 287 288 288 289 289 290 290 290 290 289 289 289 289 288 288 288 287 286 285 284 283 282 280 279 278 276 274 272 270 269 268 268 268 269 269 269 271 272 273 275 279 282 284 287 288 289 289 291 293 295 296 297 297 299 301 302 303
285 285 286 286 287 288 288 289 289 289 289 289 289 289 289 290 290 290 290 290 290 289 289 289 290 290 291 291 291 292 292 292 292 292 292 292 292 292 292 292 292 291 291 290 289 288 287 286 284 282 279 277 275 273 271 269 267 266 265 264 264 265 266 268 269 270 271 274 277 280 282 285 286 286 288 290 292 294 294 295 295 297 299 300 302
287 288 288 288 288 289 289 289 289 289 290 290 291 291 292 293 293 293 293 293 293 293 293 293 293 293 293 294 294 294 294 293 293 294 294 294 295 295 295 294 294 294 293 292 291 290 288 286 283 280 277 274 271 268 266 264 263 262 262 262 262 262 264 266 267 268 271 273 275 278 280 283 284 284 287 290 292 292 293 293 294 296 297 298 300
290 290 290 290 290 290 291 291 292 292 293 294 294 295 295 295 295 295 295 295 294 294 294 294 294 294 294 294 294 294 295 295 295 296 296 297 297 297 296 296 296 296 295 294 293 291 289 286 283 280 276 271 267 264 262 260 259 258 259 259 259 260 262 263 264 267 269 272 273 276 279 280 281 283 287 289 290 290 291 292 293 295 295 296 298
291 291 291 292 293 294 294 295 296 296 296 296 297 297 297 296 296 296 296 296 295 295 295 295 295 295 295 296 296 296 297 297 298 298 298 298 298 299 300 300 300 299 298 297 295 293 290 287 284 280 275 270 265 261 258 256 255 254 254 255 256 257 259 260 262 266 268 270 272 275 277 278 280 284 287 288 289 289 291 292 293 294 294 295 297
292 293 294 295 295 296 297 298 298 298 298 298 298 298 297 297 297 296 296 296 296 296 296 296 296 296 296 297 297 298 298 298 298 299 299 300 302 303 304 304 304 303 302 301 299 296 293 289 285 280 275 269 263 259 256 253 252 251 251 252 253 255 256 258 262 265 267 268 271 273 275 277 281 284 286 287 288 289 291 292 292 293 293 295 296
294 295 296 296 297 298 298 298 298 298 298 298 298 297 297 297 297 297 297 297 297 297 297 296 296 297 297 297 297 298 298 298 299 300 302 304 306 307 308 308 308 308 308 307 305 302 299 294 288 282 275 268 262 257 254 252 250 249 249 249 250 252 255 258 261 263 265 267 270 272 274 277 281 284 285 286 287 289 290 291 292 292 293 294 295
295 296 296 296 297 297 297 297 298 298 298 298 298 297 297 297 297 297 297 297 297 296 296 296 296 296 296 296 296 297 297 298 300 302 305 308 310 311 312 313 313 314 315 314 313 310 306 300 293 286 278 271 264 257 253 249 247 246 246 247 249 252 255 257 259 261 263 266 268 270 274 278 281 283 284 285 287 288 289 290 291 291 293 294 295
295 295 295 295 296 296 297 297 297 297 297 297 297 297 297 297 297 296 296 296 295 295 295 295 295 295 295 295 296 297 298 300 302 304 307 311 313 316 317 318 318 320 321 321 321 319 316 310 302 293 282 273 264 256 250 246 244 244 245 247 249 251 253 255 258 260 262 265 267 271 276 279 281 282 284 285 286 287 289 289 290 292 293 294 296
Height
3122 3123 3124 3125 3125 3125 3126 3126 3126 3127 3127 3127 3126 3126 3125 3125 3124 3123 3122 3122 3121 3120 3119 3118 3117 3116 3115 3113 3112 3110 3109 3107 3106 3104 3102 3101 3100 3099 3098 3097 3095 3094 3092 3091 3089 3088 3086 3084 3082 3081 3079 3077 3076 3074 3072 3070 3068 3066 3064 3062 3060 3057 3054 3052 3049 3046 3048 3047 3040 3035 3034 3031 3027 3025 3023 3020 3019 3017 3014 3012 3010 3006 3003 3000 2997
3119 3120 3120 3121 3121 3122 3122 3122 3123 3123 3123 3123 3122 3122 3121 3121 3120 3119 3118 3118 3117 3116 3115 3114 3113 3112 3111 3109 3107 3106 3105 3103 3101 3099 3098 3097 3096 3095 3094 3093 3092 3090 3088 3087 3085 3083 3082 3080 3078 3077 3075 3074 3072 3070 3069 3067 3065 3063 3060 3058 3056 3054 3051 3048 3046 3042 3040 3041 3037 3031 3030 3028 3023 3020 3018 3015 3012 3010 3007 3006 3003 3001 2998 2994 2990
3116 3116 3117 3117 3118 3118 3118 3119 3119 3119 3119 3119 3119 3118 3117 3116 3116 3115 3114 3113 3113 3112 3111 3110 3109 3108 3106 3105 3103 3101 3100 3098 3097 3095 3094 3093 3092 3091 3090 3089 3088 3086 3084 3083 3081 3079 3078 3076 3075 3073 3072 3070 3068 3067 3065 3063 3061 3059 3057 3055 3052 3050 3047 3044 3041 3038 3035 3034 3032 3026 3024 3023 3019 3015 3012 3009 3006 3003 3000 2998 2996 2994 2991 2988 2984
3112 3112 3113 3113 3114 3114 3114 3115 3115 3115 3115 3115 3115 3114 3113 3112 3111 3110 3110 3109 3108 3108 3107 3106 3105 3103 3102 3100 3099 3097 3095 3094 3093 3091 3090 3089 3089 3087 3086 3085 3084 3082 3080 3078 3077 3075 3074 3072 3071 3069 3068 3066 3064 3063 3061 3059 3057 3055 3053 3051 3049 3046 3044 3040 3037 3034 3030 3028 3027 3022 3018 3017 3014 3010 3006 3003 3001 2997 2994 2991 2988 2986 2984 2981 2978
3108 3108 3109 3109 3110 3110 3111 3111 3111 3111 3111 3111 3111 3110 3109 3108 3107 3106 3106 3105 3104 3103 3102 3101 3100 3099 3097 3096 3094 3092 3091 3090 3089 3088 3087 3086 3085 3083 3082 3081 3079 3078 3076 3074 3073 3071 3070 3068 3067 3065 3064 3062 3060 3059 3057 3055 3053 3051 3049 3047 3045 3042 3040 3037 3034 3030 3027 3024 3022 3019 3014 3011 3009 3005 3001 2997 2994 2990 2987 2985 2982 2979 2976 2974 2971
3103 3104 3104 3105 3106 3106 3107 3107 3107 3107 3107 3107 3106 3105 3104 3104 3103 3102 3101 3101 3100 3099 3098 3096 3095 3094 3093 3091 3090 3088 3087 3086 3085 3084 3083 3082 3081 3079 3078 3077 3075 3073 3072 3070 3069 3067 3066 3064 3063 3061 3060 3058 3056 3054 3053 3051 3049 3047 3045 3043 3041 3039 3036 3033 3030 3027 3024 3020 3017 3014 3010 3006 3003 3000 2995 2991 2987 2982 2978 2977 2976 2973 2969 2966 2963
3100 3100 3100 3101 3102 3102 3103 3103 3103 3103 3103 3102 3102 3101 3100 3099 3098 3098 3097 3096 3095 3094 3093 3092 3091 3090 3089 3087 3086 3084 3083 3082 3081 3080 3079 3078 3077 3075 3074 3073 3071 3069 3068 3066 3065 3064 3062 3061 3059 3057 3056 3054 3052 3051 3049 3047 3045 3043 3042 3039 3037 3035 3032 3030 3027 3023 3020 3016 3013 3009 3005 3001 2997 2994 2990 2986 2983 2978 2972 2967 2966 2966 2963 2959 2956
3096 3096 3097 3097 3098 3099 3099 3099 3098 3098 3098 3098 3097 3096 3095 3095 3094 3093 3092 3092 3091 3089 3088 3087 3086 3086 3084 3083 3082 3080 3079 3078 3077 3076 3075 3074 3073 3071 3070 3069 3067 3066 3064 3063 3061 3060 3058 3057 3055 3053 3052 3050 3049 3047 3045 3044 3042 3040 3038 3036 3033 3031 3028 3026 3023 3019 3015 3012 3008 3004 3000 2996 2992 2988 2984 2980 2976 2974 2969 2962 2958 2956 2953 2951 2949
3092 3093 3093 3093 3094 3094 3094 3094 3094 3094 3093 3093 3092 3092 3091 3090 3089 3088 3088 3087 3086 3085 3084 3083 3082 3081 3080 3078 3077 3076 3075 3074 3073 3072 3071 3070 3068 3067 3066 3065 3063 3062 3060 3059 3057 3056 3054 3053 3051 3049 3048 3046 3045 3043 3042 3040 3038 3036 3034 3032 3030 3027 3024 3021 3018 3015 3011 3007 3003 2999 2995 2991 2987 2983 2980 2975 2970 2966 2963 2958 2952 2948 2944 2941 2941
3088 3089 3089 3089 3090 3090 3089 3089 3089 3089 3088 3088 3088 3087 3086 3085 3084 3084 3083 3082 3081 3080 3079 3078 3077 3076 3074 3073 3073 3071 3071 3070 3069 3068 3067 3066 3064 3063 3062 3061 3059 3058 3056 3055 3053 3051 3050 3049 3047 3046 3044 3043 3041 3039 3038 3036 3034 3032 3030 3028 3025 3023 3020 3017 3013 3010 3006 3002 2998 2994 2990 2987 2983 2978 2974 2971 2966 2961 2956 2951 2946 2943 2938 2933 2932
3084 3084 3084 3085 3085 3085 3084 3084 3084 3084 3084 3084 3083 3083 3082 3080 3080 3079 3078 3078 3077 3076 3075 3073 3072 3071 3069 3069 3068 3067 3066 3065 3064 3063 3062 3061 3060 3059 3058 3057 3055 3054 3052 3051 3049 3047 3046 3044 3043 3042 3040 3039 3037 3035 3034 3032 3030 3028 3026 3023 3021 3018 3015 3012 3009 3005 3001 2997 2994 2989 2984 2981 2978 2973 2969 2964 2960 2955 2951 2946 2940 2936 2932 2926 2923
3079 3079 3080 3080 3080 3080 3079 3079 3079 3079 3079 3079 3079 3078 3077 3075 3075 3074 3074 3073 3072 3070 3069 3068 3067 3066 3065 3064 3063 3062 3061 3060 3059 3059 3058 3057 3056 3055 3054 3052 3051 3049 3048 3046 3045 3043 3042 3040 3039 3038 3036 3035 3033 3031 3030 3028 3026 3024 3022 3019 3017 3014 3011 3007 3004 3000 2997 2993 2990 2985 2980 2975 2972 2968 2963 2958 2953 2949 2944 2940 2936 2931 2927 2922 2917
3074 3074 3075 3075 3075 3075 3074 3074 3074 3074 3074 3074 3073 3072 3071 3070 3070 3069 3069 3068 3066 3065 3064 3063 3062 3061 3060 3059 3059 3058 3057 3056 3055 3054 3053 3053 3052 3051 3050 3048 3047 3045 3043 3042 3041 3039 3038 3037 3035 3034 3032 3031 3029 3027 3025 3024 3021 3020 3018 3015 3013 3010 3007 3003 2999 2996 2992 2988 2985 2982 2977 2971 2967 2963 2958 2952 2947 2943 2939 2935 2932 2927 2923 2918 2914
3068 3069 3070 3070 3070 3069 3069 3069 3069 3070 3069 3069 3068 3067 3066 3065 3065 3064 3063 3062 3061 3060 3059 3058 3057 3056 3055 3055 3054 3053 3052 3051 3050 3050 3049 3048 3047 3046 3045 3044 3043 3041 3039 3038 3037 3035 3034 3032 3031 3029 3028 3026 3024 3023 3021 3019 3017 3015 3013 3011 3009 3006 3003 3000 2996 2992 2988 2984 2979 2976 2972 2967 2962 2958 2953 2948 2943 2938 2933 2930 2927 2923 2918 2915 2912
3062 3063 3064 3064 3064 3064 3064 3064 3064 3064 3064 3063 3062 3061 3061 3060 3059 3058 3058 3057 3056 3055 3054 3052 3052 3051 3050 3050 3049 3048 3048 3046 3046 3045 3044 3043 3042 3041 3041 3039 3038 3037 3035 3034 3032 3031 3029 3028 3027 3025 3023 3021 3019 3018 3016 3014 3012 3011 3009 3007 3004 3002 2999 2996 2992 2989 2985 2980 2975 2970 2966 2962 2957 2952 2948 2943 2939 2935 2931 2927 2924 2919 2915 2912 2910
3057 3058 3059 3059 3058 3059 3059 3059 3058 3058 3058 3057 3057 3056 3055 3054 3054 3053 3052 3051 3050 3049 3048 3048 3047 3046 3045 3045 3044 3044 3043 3042 3041 3040 3039 3038 3037 3036 3036 3034 3033 3032 3031 3029 3028 3026 3024 3023 3022 3020 3019 3017 3015 3013 3011 3009 3008 3006 3004 3002 3000 2997 2995 2992 2988 2985 2980 2976 2971 2967 2962 2958 2953 2949 2945 2940 2935 2931 2928 2925 2922 2917 2912 2909 2907
3053 3054 3054 3053 3053 3054 3053 3053 3053 3052 3052 3052 3051 3051 3050 3049 3048 3047 3046 3046 3045 3044 3043 3043 3042 3041 3040 3040 3039 3039 3038 3037 3036 3035 3034 3033 3032 3031 3030 3029 3028 3027 3026 3024 3023 3021 3020 3018 3016 3015 3013 3011 3010 3008 3006 3004 3002 3001 2999 2997 2995 2993 2990 2987 2984 2981 2977 2973 2969 2964 2960 2955 2951 2946 2941 2937 2933 2928 2924 2921 2918 2913 2909 2905 2902
3049 3049 3049 3048 3048 3048 3048 3047 3047 3046 3046 3046 3046 3045 3044 3043 3042 3042 3041 3041 3040 3039 3038 3037 3037 3036 3036 3035 3035 3034 3033 3032 3031 3030 3029 3028 3027 3026 3025 3024 3023 3022 3021 3019 3018 3016 3015 3013 3011 3010 3008 3006 3004 3002 3000 2998 2997 2996 2994 2992 2990 2988 2985 2982 2980 2977 2974 2970 2966 2961 2956 2952 2947 2942 2938 2934 2930 2925 2921 2917 2914 2909 2905 2901 2898
3044 3044 3043 3043 3042 3042 3042 3041 3041 3041 3041 3041 3040 3040 3039 3038 3037 3036 3036 3035 3035 3034 3033 3032 3032 3032 3031 3030 3030 3029 3028 3027 3026 3025 3024 3023 3022 3021 3020 3019 3018 3017 3015 3014 3013 3011 3010 3008 3006 3004 3003 3001 2999 2997 2995 2993 2991 2990 2988 2986 2985 2982 2979 2977 2975 2972 2969 2966 2962 2958 2953 2948 2944 2939 2935 2930 2926 2922 2919 2915 2911 2906 2902 2899 2895
3038 3037 3037 3037 3036 3036 3036 3036 3036 3036 3036 3036 3035 3034 3033 3033 3032 3031 3031 3030 3029 3029 3028 3028 3028 3027 3027 3026 3025 3024 3023 3022 3021 3020 3019 3018 3017 3016 3015 3014 3013 3011 3010 3009 3008 3006 3005 3003 3001 2998 2997 2995 2994 2992 2990 2988 2985 2984 2982 2980 2979 2977 2974 2971 2969 2966 2964 2960 2957 2953 2949 2945 2940 2935 2931 2927 2923 2919 2916 2912 2908 2904 2900 2897 2893
3031 3031 3031 3031 3031 3031 3031 3031 3031 3031 3031 3030 3030 3029 3028 3028 3027 3026 3026 3025 3024 3024 3024 3023 3023 3022 3022 3021 3020 3020 3019 3017 3016 3015 3014 3013 3011 3010 3010 3009 3008 3006 3005 3004 3002 3001 2999 2997 2995 2993 2991 2989 2988 2986 2984 2982 2980 2978 2976 2974 2972 2970 2968 2966 2963 2960 2958 2955 2952 2948 2944 2940 2936 2931 2926 2923 2919 2916 2913 2910 2906 2902 2898 2894 2890
3025 3025 3026 3026 3026 3026 3026 3026 3026 3026 3025 3025 3024 3024 3023 3023 3022 3021 3021 3020 3019 3019 3019 3019 3018 3018 3017 3016 3015 3015 3014 3012 3011 3009 3008 3007 3006 3005 3004 3004 3003 3001 3000 2998 2997 2996 2994 2992 2990 2988 2986 2984 2982 2981 2978 2976 2974 2972 2971 2969 2966 2964 2962 2960 2957 2955 2952 2949 2946 2943 2939 2935 2931 2927 2923 2919 2915 2912 2910 2907 2903 2899 2896 2892 2888
3021 3021 3021 3021 3022 3022 3022 3021 3021 3020 3020 3020 3019 3018 3018 3017 3017 3016 3016 3015 3015 3014 3014 3014 3013 3013 3012 3011 3011 3010 3009 3007 3006 3004 3003 3002 3001 2999 2999 2998 2997 2996 2994 2993 2992 2990 2989 2987 2985 2983 2980 2979 2977 2975 2973 2971 2969 2967 2965 2963 2961 2958 2956 2954 2952 2949 2947 2944 2941 2938 2934 2930 2926 2923 2919 2915 2912 2909 2906 2903 2900 2897 2893 2891 2887
3016 3016 3016 3016 3017 3016 3016 3016 3015 3015 3015 3014 3013 3013 3013 3012 3012 3011 3011 3010 3010 3009 3009 3009 3008 3007 3007 3006 3005 3005 3003 3002 3001 2999 2998 2997 2995 2994 2993 2992 2991 2990 2989 2988 2987 2985 2983 2981 2979 2977 2975 2973 2972 2970 2968 2966 2963 2961 2959 2957 2955 2953 2951 2948 2946 2944 2942 2939 2936 2933 2929 2925 2921 2918 2914 2910 2907 2904 2901 2899 2897 2893 2890 2888 2886
3011 3012 3012 3011 3011 3011 3010 3010 3010 3009 3009 3009 3008 3008 3008 3007 3007 3006 3006 3005 3005 3004 3004 3003 3002 3002 3001 3000 3000 2999 2998 2997 2995 2994 2993 2991 2990 2989 2988 2986 2985 2983 2982 2982 2981 2980 2978 2976 2974 2972 2970 2968 2966 2964 2962 2960 2958 2956 2954 2952 2949 2947 2945 2943 2941 2939 2936 2934 2931 2928 2925 2921 2917 2913 2910 2906 2903 2899 2897 2895 2893 2890 2887 2885 2884
3007 3007 3006 3006 3006 3005 3005 3005 3005 3004 3004 3004 3004 3003 3003 3002 3002 3001 3001 3000 3000 2999 2999 2998 2997 2996 2995 2995 2994 2993 2992 2991 2990 2989 2987 2985 2984 2983 2981 2980 2978 2976 2975 2975 2974 2973 2972 2970 2968 2966 2964 2963 2961 2959 2957 2955 2952 2950 2948 2946 2944 2941 2939 2937 2935 2933 2931 2929 2926 2923 2920 2916 2913 2909 2905 2902 2899 2895 2892 2890 2888 2886 2884 2881 2880
3002 3002 3002 3001 3001 3001 3001 3000 3000 3000 3000 2999 2999 2998 2998 2997 2997 2996 2996 2995 2994 2994 2993 2992 2991 2990 2989 2989 2988 2987 2986 2985 2984 2983 2982 2980 2978 2977 2975 2973 2972 2970 2969 2968 2967 2966 2965 2963 2961 2960 2958 2957 2955 2953 2951 2949 2946 2944 2942 2940 2938 2936 2934 2932 2930 2928 2926 2923 2921 2918 2915 2912 2908 2905 2901 2898 2895 2892 2888 2885 2883 2881 2879 2877 2875
2997 2997 2997 2997 2997 2996 2996 2996 2996 2995 2995 2994 2994 2993 2993 2993 2992 2991 2991 2990 2989 2988 2987 2986 2985 2984 2983 2983 2982 2980 2980 2979 2978 2978 2976 2973 2971 2969 2968 2967 2965 2964 2963 2961 2960 2958 2957 2956 2954 2953 2951 2950 2948 2946 2944 2942 2940 2938 2937 2935 2933 2931 2929 2927 2925 2922 2920 2918 2916 2913 2910 2907 2903 2900 2897 2894 2891 2888 2885 2882 2879 2876 2874 2872 2869
2993 2993 2993 2993 2992 2992 2992 2991 2991 2991 2990 2990 2989 2989 2988 2987 2986 2986 2985 2984 2983 2982 2980 2979 2979 2978 2977 2976 2975 2973 2973 2973 2972 2971 2969 2966 2964 2962 2961 2960 2958 2957 2955 2954 2952 2951 2949 2948 2948 2946 2945 2943 2942 2940 2937 2935 2933 2932 2931 2929 2927 2925 2923 2921 2919 2917 2915 2912 2910 2908 2905 2902 2899 2895 2892 2889 2887 2884 2881 2878 2875 2872 2870 2868 2865
2989 2989 2989 2989 2988 2988 2987 2987 2986 2986 2985 2985 2984 2983 2983 2982 2981 2980 2979 2978 2976 2975 2974 2973 2972 2971 2969 2969 2967 2966 2966 2965 2965 2963 2961 2959 2957 2955 2954 2952 2951 2949 2948 2946 2944 2943 2943 2942 2941 2940 2939 2937 2936 2934 2931 2929 2927 2926 2924 2923 2921 2919 2917 2915 2913 2911 2909 2907 2905 2903 2900 2897 2894 2890 2887 2884 2882 2880 2878 2875 2871 2869 2866 2863 2861
2985 2985 2984 2984 2983 2983 2983 2982 2982 2981 2980 2980 2979 2978 2977 2976 2975 2974 2973 2971 2970 2968 2967 2966 2965 2963 2962 2961 2960 2959 2958 2957 2956 2955 2954 2952 2950 2948 2947 2945 2943 2942 2940 2938 2937 2936 2936 2935 2934 2934 2932 2931 2930 2928 2925 2923 2921 2920 2918 2917 2915 2913 2912 2910 2908 2906 2904 2902 2900 2897 2895 2892 2889 2886 2882 2879 2877 2875 2873 2871 2868 2865 2863 2860 2857
2980 2980 2980 2979 2978 2978 2977 2976 2976 2975 2974 2973 2973 2971 2970 2969 2968 2967 2966 2964 2963 2962 2960 2959 2958 2956 2955 2954 2953 2952 2951 2949 2948 2947 2946 2944 2942 2940 2939 2937 2936 2934 2933 2930 2929 2929 2928 2928 2927 2927 2926 2924 2923 2921 2918 2917 2915 2914 2912 2911 2909 2907 2906 2904 2902 2900 2899 2897 2895 2892 2890 2887 2885 2881 2878 2875 2872 2870 2869 2866 2864 2861 2859 2857 2854
2976 2975 2974 2974 2973 2972 2972 2971 2970 2969 2968 2967 2966 2965 2963 2962 2961 2960 2958 2957 2956 2954 2953 2951 2950 2948 2947 2946 2945 2944 2943 2941 2940 2938 2937 2936 2934 2932 2931 2930 2928 2927 2924 2922 2921 2921 2921 2920 2920 2919 2919 2917 2915 2913 2911 2910 2908 2907 2906 2904 2903 2901 2899 2898 2897 2895 2894 2892 2890 2888 2885 2883 2880 2877 2874 2871 2868 2866 2864 2862 2859 2857 2855 2853 2851
2970 2969 2968 2968 2967 2966 2966 2965 2964 2962 2961 2960 2959 2958 2957 2956 2955 2954 2952 2950 2948 2947 2945 2944 2942 2941 2939 2938 2937 2935 2935 2933 2932 2931 2929 2927 2926 2924 2923 2922 2921 2919 2916 2914 2913 2913 2912 2911 2911 2911 2910 2909 2907 2905 2904 2902 2901 2900 2899 2898 2896 2895 2893 2892 2891 2890 2888 2887 2885 2883 2880 2878 2875 2872 2869 2867 2864 2862 2860 2857 2855 2853 2850 2848 2846
2964 2963 2962 2962 2961 2960 2959 2958 2957 2956 2955 2954 2952 2951 2950 2949 2947 2946 2944 2943 2941 2939 2938 2936 2934 2933 2931 2930 2929 2928 2926 2925 2924 2922 2921 2919 2918 2916 2914 2913 2912 2911 2909 2907 2906 2905 2904 2903 2903 2903 2902 2901 2899 2898 2896 2895 2894 2893 2892 2891 2890 2889 2888 2886 2885 2884 2883 2881 2879 2878 2875 2873 2870 2867 2864 2862 2860 2858 2856 2854 2851 2849 2846 2844 2842
2958 2957 2956 2955 2954 2953 2952 2951 2950 2949 2948 2947 2946 2944 2943 2941 2940 2938 2937 2935 2933 2932 2930 2929 2927 2925 2924 2923 2922 2920 2919 2917 2916 2914 2913 2912 2910 2908 2906 2905 2904 2903 2902 2900 2899 2897 2896 2896 2895 2895 2894 2893 2892 2890 2889 2887 2886 2886 2885 2884 2883 2883 2881 2880 2879 2878 2877 2876 2874 2872 2870 2868 2866 2863 2860 2858 2856 2853 2851 2849 2847 2845 2843 2840 2838
2952 2951 2950 2949 2948 2947 2946 2945 2944 2942 2941 2940 2938 2937 2935 2934 2932 2931 2929 2927 2926 2924 2923 2921 2920 2918 2916 2914 2913 2912 2911 2910 2908 2907 2905 2904 2902 2900 2898 2897 2896 2895 2894 2893 2891 2890 2889 2888 2888 2887 2886 2885 2884 2883 2881 2880 2879 2879 2878 2877 2877 2876 2875 2874 2873 2872 2871 2870 2868 2867 2865 2863 2861 2858 2855 2853 2852 2850 2847 2845 2843 2841 2839 2837 2835
2946 2945 2944 2943 2942 2940 2939 2938 2937 2935 2934 2932 2931 2929 2928 2926 2925 2923 2922 2920 2918 2916 2915 2913 2912 2910 2908 2907 2905 2904 2903 2902 2900 2899 2898 2896 2894 2893 2891 2890 2888 2887 2886 2885 2884 2883 2882 2881 2880 2879 2878 2877 2876 2875 2874 2873 2872 2871 2871 2871 2870 2870 2869 2868 2867 2866 2866 2864 2863 2861 2860 2858 2856 2854 2851 2849 2847 2845 2844 2841 2839 2837 2835 2834 2832
2940 2939 2938 2936 2935 2934 2932 2931 2930 2928 2927 2925 2923 2922 2921 2919 2918 2916 2914 2913 2911 2909 2907 2906 2904 2903 2901 2899 2898 2896 2896 2894 2893 2892 2891 2889 2887 2885 2884 2882 2881 2880 2879 2878 2876 2875 2874 2874 2873 2871 2870 2869 2868 2867 2866 2866 2865 2864 2864 2864 2863 2863 2862 2862 2861 2860 2859 2859 2857 2856 2854 2853 2851 2849 2846 2844 2843 2841 2839 2838 2835 2833 2831 2830 2828
2933 2932 2931 2929 2928 2927 2925 2924 2923 2921 2920 2918 2917 2915 2914 2912 2911 2909 2907 2906 2904 2902 2901 2899 2897 2895 2894 2893 2891 2890 2889 2888 2886 2885 2883 2882 2880 2878 2876 2875 2874 2872 2871 2870 2868 2867 2866 2865 2864 2863 2862 2861 2860 2859 2858 2858 2857 2857 2856 2856 2856 2856 2856 2855 2854 2854 2853 2852 2851 2850 2849 2848 2846 2844 2842 2840 2838 2836 2835 2833 2832 2829 2827 2825 2824
2927 2926 2924 2923 2921 2920 2918 2917 2916 2914 2913 2911 2910 2908 2907 2905 2904 2902 2901 2899 2897 2895 2894 2892 2891 2889 2888 2886 2885 2883 2882 2881 2880 2878 2877 2875 2873 2871 2870 2868 2866 2865 2863 2862 2860 2859 2857 2856 2855 2854 2853 2852 2851 2850 2850 2849 2849 2849 2849 2849 2849 2849 2849 2848 2848 2847 2847 2846 2845 2844 2844 2842 2840 2839 2837 2836 2834 2832 2831 2829 2827 2825 2823 2822 2820
2920 2919 2917 2916 2915 2913 2912 2911 2909 2908 2906 2905 2903 2902 2900 2898 2897 2896 2894 2892 2891 2889 2887 2886 2884 2883 2881 2879 2878 2876 2875 2874 2873 2871 2870 2868 2866 2865 2863 2861 2859 2857 2855 2853 2851 2849 2848 2847 2845 2844 2843 2842 2842 2841 2840 2840 2840 2840 2840 2841 2841 2842 2842 2841 2841 2840 2840 2840 2839 2839 2838 2837 2835 2834 2832 2831 2830 2828 2827 2825 2823 2821 2820 2818 2816
2914 2912 2911 2910 2908 2907 2906 2904 2903 2901 2900 2898 2897 2895 2894 2892 2891 2889 2888 2886 2885 2883 2881 2880 2878 2877 2875 2873 2872 2870 2868 2867 2865 2864 2862 2860 2858 2856 2854 2852 2850 2848 2846 2844 2841 2839 2838 2836 2835 2834 2833 2832 2831 2831 2831 2831 2831 2831 2832 2832 2833 2834 2834 2834 2834 2834 2833 2833 2833 2833 2832 2831 2830 2829 2827 2826 2825 2824 2822 2821 2819 2817 2816 2814 2813
2908 2907 2905 2904 2902 2901 2899 2898 2897 2895 2894 2892 2891 2889 2888 2886 2885 2883 2881 2880 2878 2877 2875 2874 2872 2870 2869 2867 2865 2864 2862 2860 2858 2856 2854 2852 2850 2848 2845 2843 2841 2838 2836 2834 2831 2829 2827 2825 2824 2823 2822 2821 2821 2821 2821 2821 2822 2822 2823 2824 2825 2826 2827 2827 2827 2827 2827 2827 2828 2827 2827 2826 2825 2824 2823 2821 2820 2819 2818 2817 2815 2814 2812 2811 2809
2902 2901 2900 2898 2897 2895 2894 2892 2891 2889 2887 2886 2885 2883 2881 2880 2878 2877 2876 2874 2872 2871 2869 2868 2866 2864 2862 2860 2859 2857 2855 2853 2851 2849 2847 2844 2842 2839 2836 2834 2831 2828 2826 2823 2821 2818 2816 2814 2812 2811 2811 2810 2810 2810 2811 2811 2813 2814 2815 2817 2818 2819 2820 2821 2821 2821 2821 2822 2822 2822 2821 2821 2820 2819 2818 2817 2816 2814 2814 2812 2811 2810 2808 2807 2806
2897 2895 2894 2892 2891 2889 2888 2886 2885 2883 2882 2880 2879 2877 2876 2874 2873 2871 2870 2868 2866 2865 2863 2861 2860 2858 2856 2854 2852 2850 2848 2846 2844 2841 2839 2836 2833 2831 2828 2825 2822 2818 2815 2812 2809 2806 2804 2802 2800 2799 2799 2798 2799 2799 2801 2802 2804 2806 2808 2809 2811 2812 2813 2814 2814 2815 2816 2816 2816 2816 2816 2816 2815 2814 2813 2812 2811 2810 2809 2808 2807 2806 2805 2803 2802
2891 2889 2888 2886 2885 2883 2882 2880 2879 2878 2876 2874 2873 2871 2870 2868 2867 2865 2863 2862 2860 2858 2857 2855 2853 2851 2849 2847 2845 2843 2841 2838 2836 2834 2831 2828 2825 2822 2819 2816 2812 2809 2805 2802 2798 2795 2793 2790 2789 2788 2788 2788 2789 2790 2791 2794 2796 2798 2801 2802 2804 2805 2807 2808 2808 2809 2810 2810 2811 2811 2811 2811 2811 2810 2809 2808 2807 2806 2805 2804 2803 2802 2801 2800 2798
2885 2884 2882 2881 2879 2878 2876 2875 2873 2872 2870 2869 2867 2866 2864 2862 2861 2859 2857 2855 2854 2852 2850 2848 2846 2844 2843 2840 2838 2836 2834 2831 2829 2827 2824 2821 2818 2815 2812 2808 2804 2801 2797 2793 2790 2786 2784 2782 2780 2779 2779 2780 2781 2782 2784 2786 2789 2792 2794 2796 2798 2799 2801 2802 2803 2804 2805 2805 2806 2806 2807 2807 2806 2806 2804 2804 2803 2801 2801 2800 2799 2798 2797 2796 2795
2880 2878 2877 2875 2874 2872 2871 2869 2868 2866 2865 2863 2861 2860 2858 2856 2854 2853 2851 2849 2847 2845 2844 2842 2840 2838 2836 2834 2832 2829 2827 2825 2823 2820 2818 2815 2812 2809 2805 2802 2798 2794 2791 2787 2784 2780 2778 2776 2774 2773 2773 2774 2775 2777 2779 2781 2784 2786 2788 2790 2792 2794 2796 2797 2798 2799 2800 2800 2801 2802 2802 2802 2802 2801 2800 2800 2799 2798 2797 2796 2795 2794 2794 2793 2792
2874 2873 2871 2870 2868 2867 2865 2863 2862 2860 2859 2857 2855 2854 2852 2850 2848 2846 2845 2843 2841 2839 2837 2835 2833 2831 2829 2827 2826 2824 2821 2819 2817 2815 2812 2810 2807 2804 2800 2797 2793 2790 2787 2783 2780 2777 2774 2772 2771 2770 2770 2771 2772 2774 2776 2778 2780 2782 2784 2786 2788 2790 2791 2792 2793 2794 2795 2796 2797 2797 2798 2798 2798 2797 2796 2796 2795 2794 2793 2792 2792 2791 2790 2789 2788
2869 2867 2866 2864 2863 2861 2859 2858 2856 2855 2853 2851 2849 2847 2846 2844 2842 2840 2838 2836 2834 2832 2831 2829 2827 2825 2824 2822 2820 2818 2816 2814 2812 2810 2808 2806 2803 2800 2797 2794 2790 2787 2784 2781 2778 2775 2773 2771 2770 2769 2769 2770 2770 2772 2773 2775 2777 2778 2780 2783 2784 2786 2787 2788 2789 2790 2791 2792 2793 2794 2794 2794 2794 2793 2793 2792 2791 2790 2790 2789 2788 2788 2787 2786 2785